This is the latest recevied weather packets stored in our database for station/object NO4D. If no packets are shown the sender has not sent any weather packets the latest 10 day(s).
| Time | Temp. | Humidity | Pressure | Rain* | Wind** | Luminosity | Snow |
|---|---|---|---|---|---|---|---|
| 1777816400 | 13.89° C | 57% | 1020.8 hPa | 0 mm | - | 536 W/m² | - |
| 1777816098 | 13.89° C | 57% | 1021 hPa | 0 mm | - | 501 W/m² | - |
| 1777815795 | 13.89° C | 57% | 1020.8 hPa | 0 mm | - | 448 W/m² | - |
| 1777815493 | 13.33° C | 57% | 1020.7 hPa | 0 mm | - | 420 W/m² | - |
| 1777815190 | 13.33° C | 59% | 1020.7 hPa | 0 mm | - | 398 W/m² | - |
| 1777814886 | 13.33° C | 60% | 1020.7 hPa | 0 mm | - | 375 W/m² | - |
| 1777814582 | 13.33° C | 60% | 1020.8 hPa | 0 mm | - | 349 W/m² | - |
| 1777814280 | 13.33° C | 62% | 1020.8 hPa | 0 mm | - | 330 W/m² | - |
| 1777813976 | 13.33° C | 57% | 1020.9 hPa | 0 mm | - | 301 W/m² | - |
| 1777813674 | 13.33° C | 61% | 1020.8 hPa | 0 mm | - | 293 W/m² | - |
| 1777813371 | 12.78° C | 63% | 1020.9 hPa | 0 mm | - | 251 W/m² | - |
| 1777813068 | 12.78° C | 63% | 1020.9 hPa | 0 mm | - | 248 W/m² | - |
| 1777812766 | 12.78° C | 63% | 1020.8 hPa | 0 mm | - | 237 W/m² | - |
| 1777812462 | 12.78° C | 62% | 1020.7 hPa | 0 mm | - | 233 W/m² | - |
| 1777812161 | 12.22° C | 63% | 1020.8 hPa | 0 mm | - | 181 W/m² | - |
| 1777811858 | 12.22° C | 64% | 1020.8 hPa | 0 mm | - | 173 W/m² | - |
| 1777811557 | 11.67° C | 64% | 1020.7 hPa | 0 mm | - | 172 W/m² | - |
| 1777811252 | 11.67° C | 64% | 1020.8 hPa | 0 mm | - | 161 W/m² | - |
| 1777810950 | 11.67° C | 64% | 1020.7 hPa | 0 mm | - | 114 W/m² | - |
| 1777810646 | 11.11° C | 64% | 1020.7 hPa | 0 mm | - | 96 W/m² | - |
| 1777810343 | 11.11° C | 66% | 1020.6 hPa | 0 mm | - | 72 W/m² | - |
| 1777810038 | 11.11° C | 66% | 1020.5 hPa | 0 mm | - | 109 W/m² | - |
| 1777809737 | 10.56° C | 66% | 1020.4 hPa | 0 mm | - | 106 W/m² | - |
| 1777809434 | 10° C | 68% | 1020.3 hPa | 0 mm | - | 96 W/m² | - |
| 1777809132 | 9.44° C | 69% | 1020.3 hPa | 0 mm | - | 64 W/m² | - |
* Rain latest hour (hover to see other rain measurements)
** Current wind speed in m/s (hover to see current wind gust speed)